Location: Del Amo
(33.8464°N, 118.2104°W)
Time: 18:55:41
(UTC+00:00)

Vanguard 1 Rocket - Pass Details

Date: 20 September 2024
Orbit: 650 x 4218 km, 34.3° (Epoch: 04 October)

Event Time Altitude Azimuth Distance (km) Brightness Sun altitude
Rises 16:09:50 0° 288° (WNW) 7,129 11.4 29.6°
Reaches altitude 10° 16:14:07 10° 285° (WNW) 6,463 11.3 30.5°
Maximum altitude 16:36:40 58° 214° (SW) 4,631 11.4 34.7°
Drops below altitude 10° 17:00:16 10° 142° (SE) 6,669 12.9 39.0°
Sets 17:04:51 0° 138° (SE) 7,349 12.9 39.8°
